Flag for Canada Weather past 2 weeks in Greater Sudbury, Ontario, Canada

Now
18 °F

Partly sunny.


Feels Like: 18 °F
Forecast: 13 / 25 °F
Wind: No wind

Location: Sudbury

Current Time: Dec 21, 2014 at 11:38:33 AM

Latest Report: Dec 21, 2014 at 11:00 AM


Visibility: 15 mi

Pressure: 30.32 "Hg

Humidity: 86%

Dew point: 14 °F

Location of Greater SudburyLocation

Historic Weather in Greater Sudbury — Graph

°F

Greater Sudbury temperature yesterday

Maximum temperature yesterday: 18 °F (at 1:00 PM)
Minimum temperature yesterday: 3 °F (at 5:00 AM)
Average temperature yesterday: 11 °F

Past Weeks' High & Low Weather Summary

 TemperatureHumidityPressure
High36 °F (Dec 16, 4:00 PM)100% (Dec 12, 10:00 PM)30.82 "Hg (Dec 12, 10:00 PM)
Low0 °F (Dec 19, 6:00 AM)42% (Dec 11, 2:00 PM)29.79 "Hg (Dec 16, 3:00 PM)
Average21 °F83%30.16 "Hg
* Reported Dec 6 10:00 AM — Dec 21 10:00 AM, Greater Sudbury, Weather by CustomWeather, © 2014

Note: Actual official high and low records may vary slightly from our data, if they occured in-between our weather recording intervals... More about our weather records

Advertising

Greater Sudbury weather history for previous 24 hours

 ConditionsComfort  
Time TempWeatherWind HumidityBarometerVisibility
10:00 AM
Dec 21
16 °FPartly sunny.No wind86%30.33 "Hg10 mi
9:00 AM16 °FOvercast.3 mph86%30.33 "Hg15 mi
8:00 AM16 °FOvercast.5 mph93%30.32 "Hg20 mi
7:00 AM18 °FOvercast.No wind86%30.31 "Hg15 mi
6:00 AM16 °FOvercast.No wind86%30.30 "Hg15 mi
5:00 AM14 °FMostly cloudy.2 mph92%30.30 "Hg15 mi
4:00 AM14 °FOvercast.2 mph92%30.30 "Hg14 mi
2:00 AM16 °FOvercast.2 mph93%30.29 "Hg15 mi
1:00 AM18 °FMostly cloudy.3 mph93%30.29 "Hg15 mi
12:00 AM16 °FPassing clouds.3 mph86%30.31 "Hg15 mi
11:00 PM
Dec 20
18 °FPassing clouds.2 mph86%30.31 "Hg15 mi
10:00 PM16 °FOvercast.3 mph93%30.32 "Hg15 mi
9:00 PM18 °FPassing clouds.3 mph86%30.32 "Hg15 mi
8:00 PM16 °FPassing clouds.2 mph86%30.33 "Hg15 mi
7:00 PM14 °FPassing clouds.No wind92%30.33 "Hg15 mi
6:00 PM16 °FPassing clouds.2 mph86%30.32 "Hg15 mi
5:00 PM18 °FPassing clouds.2 mph86%30.32 "Hg20 mi
4:00 PM18 °FPartly sunny.3 mph86%30.31 "Hg20 mi
3:00 PM18 °FScattered clouds.5 mph86%30.31 "Hg20 mi
2:00 PM18 °FBroken clouds.3 mph93%30.31 "Hg20 mi
1:00 PM18 °FScattered clouds.5 mph86%30.32 "Hg20 mi
12:00 PM16 °FBroken clouds.5 mph86%30.34 "Hg20 mi
11:00 AM14 °FScattered clouds.7 mph92%30.36 "Hg15 mi
Weather by CustomWeather, © 2014

See weather overviewHow to use our weather pages